Time,TemperatureF,DewpointF,PressureIn,WindDirection,WindDirectionDegrees,WindSpeedMPH,WindSpeedGustMPH,Humidity,HourlyPrecipIn,Conditions,Clouds,dailyrainin,SoftwareType,DateUTC
2013-03-28 00:02:00,44.0,43.0,29.91,SSE,157,0.0,2.0,95,0.00,,,0.00,,2013-03-28 07:02:00,
2013-03-28 00:12:00,44.0,43.0,29.91,SSE,157,0.0,2.0,95,0.00,,,0.00,,2013-03-28 07:12:00,
2013-03-28 00:22:00,45.0,44.0,29.91,SSE,157,1.0,2.0,96,0.00,,,0.00,,2013-03-28 07:22:00,
2013-03-28 00:32:00,44.0,43.0,29.91,SSE,153,0.0,2.0,95,0.00,,,0.00,,2013-03-28 07:32:00,
2013-03-28 00:42:00,44.0,43.0,29.91,SSE,153,0.0,2.0,95,0.00,,,0.00,,2013-03-28 07:42:00,
2013-03-28 00:52:00,44.0,43.0,29.91,SE,132,0.0,3.0,96,0.00,,,0.00,,2013-03-28 07:52:00,
2013-03-28 01:02:00,44.0,43.0,29.91,SE,132,0.0,2.0,96,0.00,,,0.00,,2013-03-28 08:02:00,
2013-03-28 01:11:00,44.0,43.0,29.91,SE,132,0.0,2.0,96,0.00,,,0.00,,2013-03-28 08:11:00,
2013-03-28 01:21:00,45.0,44.0,29.92,SE,132,0.0,1.0,96,0.00,,,0.00,,2013-03-28 08:21:00,
2013-03-28 01:32:00,45.0,44.0,29.92,SE,132,0.0,1.0,96,0.00,,,0.00,,2013-03-28 08:32:00,
2013-03-28 01:42:00,45.0,44.0,29.92,SE,132,0.0,1.0,96,0.00,,,0.00,,2013-03-28 08:42:00,
2013-03-28 01:52:00,46.0,45.0,29.91,SE,132,0.0,2.0,97,0.00,,,0.00,,2013-03-28 08:52:00,
2013-03-28 02:01:00,45.0,44.0,29.92,ESE,105,1.0,2.0,96,0.00,,,0.00,,2013-03-28 09:01:00,
2013-03-28 02:11:00,45.0,44.0,29.92,ESE,105,1.0,2.0,96,0.00,,,0.00,,2013-03-28 09:11:00,
2013-03-28 02:22:00,45.0,44.0,29.92,ESE,105,1.0,2.0,96,0.00,,,0.00,,2013-03-28 09:22:00,
2013-03-28 02:32:00,46.0,45.0,29.91,ESE,105,0.0,1.0,97,0.00,,,0.00,,2013-03-28 09:32:00,
2013-03-28 02:42:00,46.0,45.0,29.91,ESE,105,0.0,1.0,97,0.00,,,0.00,,2013-03-28 09:42:00,
2013-03-28 02:52:00,46.0,45.0,29.91,ESE,105,0.0,1.0,96,0.00,,,0.00,,2013-03-28 09:52:00,
2013-03-28 03:02:00,46.0,45.0,29.92,SSE,153,1.0,4.0,96,0.00,,,0.00,,2013-03-28 10:02:00,
2013-03-28 03:12:00,46.0,45.0,29.92,SSE,153,1.0,4.0,96,0.00,,,0.00,,2013-03-28 10:12:00,
2013-03-28 03:22:00,46.0,45.0,29.91,South,176,1.0,2.0,96,0.00,,,0.00,,2013-03-28 10:22:00,
2013-03-28 03:32:00,46.0,45.0,29.91,South,176,1.0,2.0,96,0.00,,,0.00,,2013-03-28 10:32:00,
2013-03-28 03:42:00,46.0,45.0,29.91,South,176,1.0,2.0,96,0.00,,,0.00,,2013-03-28 10:42:00,
2013-03-28 03:53:00,47.0,46.0,29.91,South,176,0.0,1.0,95,0.00,,,0.00,,2013-03-28 10:53:00,
2013-03-28 04:02:00,47.0,46.0,29.91,South,176,0.0,1.0,95,0.00,,,0.00,,2013-03-28 11:02:00,
2013-03-28 04:12:00,47.0,46.0,29.91,South,176,0.0,1.0,95,0.00,,,0.00,,2013-03-28 11:12:00,
2013-03-28 04:22:00,47.0,46.0,29.91,South,176,0.0,1.0,95,0.00,,,0.00,,2013-03-28 11:22:00,
2013-03-28 04:32:00,47.0,46.0,29.91,South,176,0.0,0.0,95,0.00,,,0.00,,2013-03-28 11:32:00,
2013-03-28 04:42:00,47.0,46.0,29.91,South,176,0.0,0.0,95,0.00,,,0.00,,2013-03-28 11:42:00,
2013-03-28 04:52:00,47.0,46.0,29.92,South,176,0.0,2.0,96,0.00,,,0.00,,2013-03-28 11:52:00,
2013-03-28 05:02:00,47.0,46.0,29.91,South,176,0.0,2.0,95,0.00,,,0.00,,2013-03-28 12:02:00,
2013-03-28 05:12:00,47.0,46.0,29.91,South,176,0.0,2.0,95,0.00,,,0.00,,2013-03-28 12:12:00,
2013-03-28 05:22:00,47.0,46.0,29.91,South,176,0.0,1.0,96,0.00,,,0.00,,2013-03-28 12:22:00,
2013-03-28 05:32:00,47.0,46.0,29.91,South,176,0.0,1.0,95,0.00,,,0.00,,2013-03-28 12:32:00,
2013-03-28 05:42:00,47.0,46.0,29.91,South,176,0.0,1.0,95,0.00,,,0.00,,2013-03-28 12:42:00,
2013-03-28 05:52:00,46.0,45.0,29.91,WNW,293,0.0,2.0,95,0.00,,,0.00,,2013-03-28 12:52:00,
2013-03-28 06:02:00,46.0,45.0,29.91,WNW,293,0.0,2.0,95,0.00,,,0.00,,2013-03-28 13:02:00,
2013-03-28 06:11:00,46.0,45.0,29.91,WNW,293,0.0,2.0,95,0.00,,,0.00,,2013-03-28 13:11:00,
2013-03-28 06:22:00,46.0,45.0,29.92,WNW,293,0.0,2.0,96,0.00,,,0.00,,2013-03-28 13:22:00,
2013-03-28 06:32:00,46.0,45.0,29.92,WNW,293,0.0,1.0,96,0.00,,,0.00,,2013-03-28 13:32:00,
2013-03-28 06:41:00,46.0,45.0,29.92,WNW,293,0.0,1.0,96,0.00,,,0.00,,2013-03-28 13:41:00,
2013-03-28 06:52:00,45.0,44.0,29.92,WNW,293,1.0,2.0,96,0.00,,,0.00,,2013-03-28 13:52:00,
2013-03-28 07:01:00,45.0,44.0,29.92,WNW,293,1.0,2.0,96,0.00,,,0.00,,2013-03-28 14:01:00,
2013-03-28 07:12:00,45.0,44.0,29.92,WNW,293,1.0,2.0,96,0.00,,,0.00,,2013-03-28 14:12:00,
2013-03-28 07:22:00,44.0,43.0,29.92,SSE,161,1.0,2.0,96,0.00,,,0.00,,2013-03-28 14:22:00,
2013-03-28 07:32:00,44.0,43.0,29.93,SE,137,1.0,2.0,96,0.00,,,0.00,,2013-03-28 14:32:00,
2013-03-28 07:42:00,44.0,43.0,29.93,SE,137,1.0,2.0,96,0.00,,,0.00,,2013-03-28 14:42:00,
2013-03-28 07:52:00,44.0,43.0,29.94,SE,135,0.0,1.0,96,0.00,,,0.00,,2013-03-28 14:52:00,
2013-03-28 08:01:00,45.0,44.0,29.95,SE,143,1.0,3.0,97,0.00,,,0.00,,2013-03-28 15:01:00,
2013-03-28 08:11:00,45.0,44.0,29.95,SE,143,1.0,3.0,97,0.00,,,0.00,,2013-03-28 15:11:00,
2013-03-28 08:21:00,46.0,45.0,29.95,ESE,107,0.0,2.0,97,0.00,,,0.00,,2013-03-28 15:21:00,
2013-03-28 08:32:00,46.0,45.0,29.96,ESE,107,0.0,1.0,97,0.00,,,0.00,,2013-03-28 15:32:00,
2013-03-28 08:42:00,46.0,45.0,29.96,ESE,107,0.0,1.0,97,0.00,,,0.00,,2013-03-28 15:42:00,
2013-03-28 08:53:00,48.0,47.0,29.97,ESE,107,0.0,1.0,97,0.00,,,0.00,,2013-03-28 15:53:00,
2013-03-28 09:02:00,49.0,48.0,29.97,NNE,15,0.0,2.0,96,0.00,,,0.00,,2013-03-28 16:02:00,
2013-03-28 09:12:00,49.0,48.0,29.97,NNE,15,0.0,2.0,96,0.00,,,0.00,,2013-03-28 16:12:00,
2013-03-28 09:22:00,51.0,48.0,29.97,NNW,344,1.0,3.0,91,0.00,,,0.00,,2013-03-28 16:22:00,
2013-03-28 09:32:00,52.0,49.0,29.98,NW,314,1.0,3.0,89,0.00,,,0.00,,2013-03-28 16:32:00,
2013-03-28 09:42:00,52.0,49.0,29.98,NW,314,1.0,3.0,89,0.00,,,0.00,,2013-03-28 16:42:00,
2013-03-28 09:52:00,52.0,49.0,29.98,West,275,2.0,4.0,88,0.00,,,0.00,,2013-03-28 16:52:00,
2013-03-28 10:02:00,52.0,49.0,29.98,West,270,1.0,3.0,88,0.00,,,0.00,,2013-03-28 17:02:00,
2013-03-28 10:12:00,52.0,49.0,29.98,West,270,1.0,3.0,88,0.00,,,0.00,,2013-03-28 17:12:00,
2013-03-28 10:22:00,52.0,48.0,29.98,North,11,3.0,5.0,86,0.00,,,0.00,,2013-03-28 17:22:00,
2013-03-28 10:32:00,53.0,49.0,29.98,North,351,2.0,5.0,86,0.00,,,0.00,,2013-03-28 17:32:00,
2013-03-28 10:42:00,53.0,49.0,29.98,North,351,2.0,5.0,86,0.00,,,0.00,,2013-03-28 17:42:00,
2013-03-28 10:52:00,54.0,49.0,29.98,North,355,1.0,6.0,84,0.00,,,0.00,,2013-03-28 17:52:00,
2013-03-28 11:02:00,54.0,49.0,29.98,NNE,26,2.0,5.0,83,0.00,,,0.00,,2013-03-28 18:02:00,
2013-03-28 11:12:00,54.0,49.0,29.98,NNE,26,2.0,5.0,83,0.00,,,0.00,,2013-03-28 18:12:00,
2013-03-28 11:22:00,55.0,50.0,29.98,East,80,1.0,5.0,83,0.00,,,0.00,,2013-03-28 18:22:00,
2013-03-28 11:31:00,56.0,49.0,29.98,North,5,3.0,6.0,78,0.00,,,0.00,,2013-03-28 18:31:00,
2013-03-28 11:42:00,56.0,49.0,29.98,North,5,3.0,6.0,78,0.00,,,0.00,,2013-03-28 18:42:00,
2013-03-28 11:52:00,55.0,49.0,29.98,NNE,30,2.0,5.0,81,0.00,,,0.00,,2013-03-28 18:52:00,
2013-03-28 12:01:00,55.0,50.0,29.98,NNE,33,2.0,8.0,83,0.00,,,0.00,,2013-03-28 19:01:00,
2013-03-28 12:12:00,55.0,50.0,29.98,NNE,33,2.0,8.0,83,0.00,,,0.00,,2013-03-28 19:12:00,
2013-03-28 12:22:00,55.0,51.0,29.97,East,97,1.0,5.0,85,0.00,,,0.00,,2013-03-28 19:22:00,
2013-03-28 12:32:00,55.0,50.0,29.98,SSE,164,1.0,4.0,84,0.00,,,0.00,,2013-03-28 19:32:00,
2013-03-28 12:42:00,55.0,50.0,29.98,SSE,164,1.0,4.0,84,0.00,,,0.00,,2013-03-28 19:42:00,
2013-03-28 12:52:00,55.0,51.0,29.99,East,90,0.0,2.0,86,0.01,,,0.01,,2013-03-28 19:52:00,
2013-03-28 13:02:00,54.0,51.0,29.99,East,90,0.0,1.0,88,0.02,,,0.02,,2013-03-28 20:02:00,
2013-03-28 13:12:00,54.0,51.0,29.99,East,90,0.0,1.0,88,0.02,,,0.02,,2013-03-28 20:12:00,
2013-03-28 13:22:00,54.0,50.0,29.99,East,95,0.0,2.0,87,0.04,,,0.04,,2013-03-28 20:22:00,
2013-03-28 13:32:00,55.0,52.0,29.99,SE,128,1.0,3.0,89,0.05,,,0.05,,2013-03-28 20:32:00,
2013-03-28 13:42:00,55.0,52.0,29.99,SE,128,1.0,3.0,89,0.05,,,0.05,,2013-03-28 20:42:00,
2013-03-28 13:53:00,55.0,52.0,29.99,SE,128,1.0,3.0,89,0.05,,,0.05,,2013-03-28 20:53:00,
2013-03-28 14:02:00,55.0,52.0,29.99,ESE,103,0.0,2.0,89,0.04,,,0.06,,2013-03-28 21:02:00,
2013-03-28 14:11:00,55.0,52.0,29.99,ESE,103,0.0,2.0,89,0.04,,,0.06,,2013-03-28 21:11:00,
2013-03-28 14:22:00,55.0,52.0,29.99,NW,326,0.0,3.0,88,0.03,,,0.07,,2013-03-28 21:22:00,
2013-03-28 14:32:00,55.0,53.0,29.99,North,360,1.0,3.0,92,0.02,,,0.07,,2013-03-28 21:32:00,
2013-03-28 14:42:00,55.0,53.0,29.99,North,360,1.0,3.0,92,0.02,,,0.07,,2013-03-28 21:42:00,
2013-03-28 14:53:00,57.0,55.0,29.98,NNW,338,2.0,5.0,92,0.01,,,0.07,,2013-03-28 21:53:00,
2013-03-28 15:02:00,57.0,54.0,29.98,North,360,0.0,4.0,91,0.01,,,0.07,,2013-03-28 22:02:00,
2013-03-28 15:12:00,57.0,54.0,29.98,North,360,0.0,4.0,91,0.01,,,0.07,,2013-03-28 22:12:00,
2013-03-28 15:22:00,58.0,52.0,29.98,NE,36,2.0,5.0,81,0.00,,,0.07,,2013-03-28 22:22:00,
2013-03-28 15:32:00,57.0,52.0,29.98,NNW,336,2.0,4.0,84,0.00,,,0.07,,2013-03-28 22:32:00,
2013-03-28 15:42:00,57.0,52.0,29.98,NNW,336,2.0,4.0,84,0.00,,,0.07,,2013-03-28 22:42:00,
2013-03-28 15:52:00,57.0,52.0,29.97,NNE,22,1.0,3.0,84,0.00,,,0.07,,2013-03-28 22:52:00,
2013-03-28 16:02:00,58.0,54.0,29.97,East,88,0.0,2.0,86,0.00,,,0.07,,2013-03-28 23:02:00,
2013-03-28 16:12:00,58.0,54.0,29.97,East,88,0.0,2.0,86,0.00,,,0.07,,2013-03-28 23:12:00,
2013-03-28 16:21:00,58.0,53.0,29.97,North,350,1.0,4.0,84,0.00,,,0.07,,2013-03-28 23:21:00,
2013-03-28 16:32:00,58.0,54.0,29.97,West,276,1.0,3.0,86,0.00,,,0.07,,2013-03-28 23:32:00,
2013-03-28 16:42:00,58.0,54.0,29.97,West,276,1.0,3.0,86,0.00,,,0.07,,2013-03-28 23:42:00,
2013-03-28 16:52:00,58.0,54.0,29.97,NW,307,1.0,2.0,85,0.00,,,0.07,,2013-03-28 23:52:00,
2013-03-28 17:02:00,58.0,54.0,29.97,NW,305,1.0,3.0,85,0.00,,,0.07,,2013-03-29 00:02:00,
2013-03-28 17:11:00,58.0,54.0,29.97,NW,305,1.0,3.0,85,0.00,,,0.07,,2013-03-29 00:11:00,
2013-03-28 17:22:00,59.0,53.0,29.96,NNW,348,2.0,5.0,81,0.00,,,0.07,,2013-03-29 00:22:00,
2013-03-28 17:32:00,60.0,52.0,29.96,NNE,28,2.0,5.0,75,0.00,,,0.07,,2013-03-29 00:32:00,
2013-03-28 17:42:00,60.0,52.0,29.96,NNE,28,2.0,5.0,75,0.00,,,0.07,,2013-03-29 00:42:00,
2013-03-28 17:52:00,60.0,53.0,29.96,NNE,22,1.0,4.0,79,0.00,,,0.07,,2013-03-29 00:52:00,
2013-03-28 18:02:00,60.0,52.0,29.96,North,5,1.0,3.0,75,0.00,,,0.07,,2013-03-29 01:02:00,
2013-03-28 18:12:00,60.0,52.0,29.96,North,5,1.0,3.0,75,0.00,,,0.07,,2013-03-29 01:12:00,
2013-03-28 18:22:00,60.0,52.0,29.96,North,5,1.0,3.0,75,0.00,,,0.07,,2013-03-29 01:22:00,
2013-03-28 18:31:00,60.0,52.0,29.96,East,80,0.0,3.0,75,0.00,,,0.07,,2013-03-29 01:31:00,
2013-03-28 18:42:00,60.0,52.0,29.96,East,80,0.0,3.0,75,0.00,,,0.07,,2013-03-29 01:42:00,
2013-03-28 18:52:00,59.0,51.0,29.96,North,355,1.0,3.0,74,0.00,,,0.07,,2013-03-29 01:52:00,
2013-03-28 19:02:00,57.0,51.0,29.96,North,355,0.0,1.0,81,0.00,,,0.07,,2013-03-29 02:02:00,
2013-03-28 19:11:00,57.0,51.0,29.96,North,355,0.0,1.0,81,0.00,,,0.07,,2013-03-29 02:11:00,
2013-03-28 19:21:00,55.0,51.0,29.96,NNE,27,1.0,2.0,85,0.00,,,0.07,,2013-03-29 02:21:00,
2013-03-28 19:32:00,54.0,51.0,29.96,East,101,1.0,2.0,89,0.00,,,0.07,,2013-03-29 02:32:00,
2013-03-28 19:42:00,54.0,51.0,29.96,East,101,1.0,2.0,89,0.00,,,0.07,,2013-03-29 02:42:00,
2013-03-28 19:52:00,54.0,51.0,29.96,East,101,1.0,2.0,89,0.00,,,0.07,,2013-03-29 02:52:00,
2013-03-28 20:02:00,52.0,50.0,29.96,SE,129,1.0,3.0,92,0.00,,,0.07,,2013-03-29 03:02:00,
2013-03-28 20:12:00,52.0,50.0,29.96,SE,129,1.0,3.0,92,0.00,,,0.07,,2013-03-29 03:12:00,
2013-03-28 20:21:00,51.0,49.0,29.96,SE,129,2.0,3.0,93,0.00,,,0.07,,2013-03-29 03:21:00,
2013-03-28 20:32:00,51.0,49.0,29.97,SE,129,2.0,3.0,93,0.00,,,0.07,,2013-03-29 03:32:00,
2013-03-28 20:42:00,51.0,49.0,29.97,SE,129,2.0,3.0,93,0.00,,,0.07,,2013-03-29 03:42:00,
2013-03-28 20:53:00,50.0,48.0,29.97,SE,129,1.0,3.0,93,0.00,,,0.07,,2013-03-29 03:53:00,
2013-03-28 21:02:00,50.0,49.0,29.97,SE,129,1.0,3.0,95,0.00,,,0.07,,2013-03-29 04:02:00,
2013-03-28 21:12:00,50.0,49.0,29.97,SE,129,1.0,3.0,95,0.00,,,0.07,,2013-03-29 04:12:00,
2013-03-28 21:22:00,50.0,49.0,29.98,SE,142,2.0,3.0,95,0.00,,,0.07,,2013-03-29 04:22:00,
2013-03-28 21:32:00,50.0,49.0,29.98,SE,132,1.0,2.0,95,0.00,,,0.07,,2013-03-29 04:32:00,
2013-03-28 21:42:00,50.0,49.0,29.98,SE,132,1.0,2.0,95,0.00,,,0.07,,2013-03-29 04:42:00,
2013-03-28 21:52:00,50.0,49.0,29.99,SE,132,1.0,3.0,95,0.00,,,0.07,,2013-03-29 04:52:00,
2013-03-28 22:02:00,50.0,49.0,29.99,SE,134,2.0,4.0,95,0.00,,,0.07,,2013-03-29 05:02:00,
2013-03-28 22:12:00,50.0,49.0,29.99,SE,134,2.0,4.0,95,0.00,,,0.07,,2013-03-29 05:12:00,
2013-03-28 22:22:00,50.0,49.0,29.99,SE,140,1.0,3.0,95,0.00,,,0.07,,2013-03-29 05:22:00,
2013-03-28 22:32:00,49.0,47.0,29.99,SE,140,1.0,2.0,94,0.00,,,0.07,,2013-03-29 05:32:00,
2013-03-28 22:42:00,49.0,47.0,29.99,SE,140,1.0,2.0,94,0.00,,,0.07,,2013-03-29 05:42:00,
2013-03-28 22:52:00,49.0,48.0,29.99,SE,140,1.0,2.0,95,0.00,,,0.07,,2013-03-29 05:52:00,
2013-03-28 23:02:00,48.0,47.0,29.98,SE,140,0.0,2.0,95,0.00,,,0.07,,2013-03-29 06:02:00,
2013-03-28 23:12:00,48.0,47.0,29.98,SE,140,0.0,2.0,95,0.00,,,0.07,,2013-03-29 06:12:00,
2013-03-28 23:22:00,48.0,47.0,29.98,SE,140,0.0,2.0,95,0.00,,,0.07,,2013-03-29 06:22:00,
2013-03-28 23:32:00,48.0,47.0,29.98,SE,140,0.0,2.0,95,0.00,,,0.07,,2013-03-29 06:32:00,
2013-03-28 23:42:00,48.0,47.0,29.98,SE,140,0.0,2.0,95,0.00,,,0.07,,2013-03-29 06:42:00,
2013-03-28 23:52:00,48.0,47.0,29.99,SE,140,0.0,2.0,96,0.00,,,0.07,,2013-03-29 06:52:00,